Weather History for KPSC - December, 2011

Change the Weather History Date:

Wednesday, December 28, 2011

  Actual Average Record
Temperature  
Mean Temperature 55 °F 32 °F  
Max Temperature 61 °F 39 °F 61 °F (2011)
Min Temperature 49 °F 26 °F -10 °F (1996)
Degree Days  
Heating Degree Days 10 33  
Month to date heating degree days 948 891  
Since 1 July heating degree days 2110 2120  
Cooling Degree Days 0 0  
Month to date cooling degree days 0 0  
Year to date cooling degree days 632 710  
Growing Degree Days 6 (Base 50)    
Moisture  
Dew Point 46 °F    
Average Humidity 69    
Maximum Humidity 77    
Minimum Humidity 60    
Precipitation  
Precipitation 0.01 in 0.05 in 0.53 in (2010)
Month to date precipitation 0.01 1.08  
Year to date precipitation 6.14 8.70  
Snow  
Snow 0.00 in - - ()
Snow Depth 0.00 in    
Sea Level Pressure  
Sea Level Pressure 29.85 in    
Wind  
Wind Speed 17 mph (SW)    
Max Wind Speed 39 mph    
Max Gust Speed 47 mph    
Visibility 10 miles    
Events Rain    
T = Trace of Precipitation, MM = Missing Value Source: NWS Daily Summary

Daily Weather History Graph

Daily Weather History Graph

Search for Another Location

Airport or City:

Trip Planner

Search our weather history database for the weather conditions in past years. The results will help you decide how hot, cold, wet, or windy it might be!

Date:

Astronomy

Dec. 28, 2011 Rise Set
Actual Time 7:38 AM PST 4:17 PM PST
Civil Twilight 7:04 AM PST 4:51 PM PST
Nautical Twilight 6:26 AM PST 5:30 PM PST
Astronomical Twilight 5:49 AM PST 6:06 PM PST
Moon 9:52 AM PST (12/28) 9:14 PM PST (12/28)
Length of Visible Light 9h 47m
Length of Day
8h 38m
Waxing Crescent, 19% of the Moon is Illuminated
Dec 28
Waxing Crescent
Dec 31
First Quarter
Jan 8
Full
Jan 16
Last Quarter
Jan 22
New

Hourly Weather History & Observations

Time (PST) Temp. Dew Point Humidity Pressure Visibility Wind Dir Wind Speed Gust Speed Precip Events Conditions
12:53 AM 54.0 °F 42.1 °F 64% 29.86 in 10.0 mi SSW 11.5 mph - 0.00 in   Partly Cloudy
1:53 AM 54.0 °F 43.0 °F 66% 29.87 in 10.0 mi SW 18.4 mph 26.5 mph N/A   Partly Cloudy
2:53 AM 52.0 °F 44.1 °F 74% 29.90 in 10.0 mi SW 17.3 mph 24.2 mph N/A   Scattered Clouds
3:53 AM 55.0 °F 44.1 °F 67% 29.91 in 10.0 mi SW 15.0 mph 21.9 mph N/A   Clear
4:53 AM 55.9 °F 45.0 °F 67% 29.92 in 10.0 mi SW 12.7 mph 20.7 mph N/A   Overcast
5:53 AM 55.0 °F 45.0 °F 69% 29.90 in 10.0 mi SSW 15.0 mph - N/A   Clear
6:53 AM 57.9 °F 45.0 °F 62% 29.90 in 10.0 mi WSW 13.8 mph - N/A   Clear
7:53 AM 57.9 °F 45.0 °F 62% 29.90 in 10.0 mi SW 18.4 mph 34.5 mph N/A   Partly Cloudy
8:53 AM 57.9 °F 46.0 °F 65% 29.94 in 10.0 mi SW 17.3 mph 25.3 mph N/A   Partly Cloudy
9:53 AM 57.0 °F 46.0 °F 67% 29.96 in 10.0 mi SW 18.4 mph 27.6 mph N/A   Clear
10:53 AM 57.0 °F 45.0 °F 64% 29.95 in 10.0 mi SW 21.9 mph 31.1 mph N/A   Overcast
11:53 AM 57.0 °F 45.0 °F 64% 29.94 in 10.0 mi WSW 23.0 mph 31.1 mph N/A   Overcast
12:53 PM 57.0 °F 44.1 °F 62% 29.92 in 10.0 mi SW 18.4 mph 24.2 mph N/A   Overcast
1:53 PM 57.0 °F 44.1 °F 62% 29.88 in 10.0 mi SW 20.7 mph - N/A   Mostly Cloudy
2:53 PM 55.9 °F 46.0 °F 69% 29.87 in 10.0 mi South 12.7 mph - N/A   Overcast
3:53 PM 55.0 °F 46.0 °F 72% 29.83 in 10.0 mi SE 10.4 mph - N/A   Overcast
4:53 PM 54.0 °F 48.9 °F 83% 29.79 in 10.0 mi ESE 11.5 mph - 0.00 in Rain Light Rain
5:53 PM 55.9 °F 48.9 °F 77% 29.75 in 10.0 mi South 17.3 mph 20.7 mph 0.01 in   Overcast
6:53 PM 59.0 °F 48.0 °F 67% 29.71 in 10.0 mi SSW 13.8 mph 19.6 mph N/A   Overcast
7:53 PM 60.1 °F 46.9 °F 62% 29.70 in 10.0 mi SSW 16.1 mph 29.9 mph N/A   Mostly Cloudy
8:53 PM 60.1 °F 48.0 °F 64% 29.68 in 10.0 mi SW 29.9 mph 43.7 mph N/A   Clear
9:53 PM 59.0 °F 46.9 °F 64% 29.69 in 10.0 mi SW 29.9 mph 43.7 mph N/A   Clear
10:53 PM 57.9 °F 46.9 °F 67% 29.75 in 10.0 mi SW 24.2 mph 35.7 mph N/A   Clear
11:53 PM 55.9 °F 46.9 °F 72% 29.77 in 10.0 mi SW 21.9 mph 34.5 mph N/A   Clear